DW5247 Lemo FI current weather conditions

sailwx.info

Wind from 068 at 2 knots gusting 3

Air temperature -3.9° C
Dewpoint -4.9° C

Last reported at 2016-Dec-05 01:52 UTC.
Time now 2016-Dec-05 02:28 UTC

Location: N 62°41' E 029°49'.
View on Google Maps.

See reports from other nearby stations

  
Tides and Currents Weather Stations Pressure Air Temp Water Temp Dewpoint Dewpoint Depression Visibility Wind Speed Wind Dir Waves Ship Positions
date/time (UTC)wind fromknots sea level pressurealtimeterstation pressurevisibilityair tempwater tempwave heightnotes
2016-Dec-05 01:52 068 2 gusting 3 -3.9
2016-Dec-05 01:47 068 2 gusting 3 -3.9
2016-Dec-05 01:42 090 3 gusting 3 -4.4
2016-Dec-05 01:37 068 3 gusting 4 -4.4
2016-Dec-05 01:32 068 3 gusting 6 -4.4
2016-Dec-05 01:27 068 3 gusting 6 -4.4
2016-Dec-05 01:22 090 3 gusting 6 -4.4
2016-Dec-05 01:17 068 3 gusting 5 -4.4
2016-Dec-05 01:12 068 2 gusting 5 -4.4
2016-Dec-05 01:07 068 2 gusting 5 -4.4
2016-Dec-05 01:02 068 2 gusting 5 -4.4
2016-Dec-05 00:57 090 2 gusting 5 -4.4
2016-Dec-05 00:52 068 3 gusting 5 -4.4
2016-Dec-05 00:47 068 3 gusting 5 -4.4
2016-Dec-05 00:42 248 3 gusting 5 -4.4
2016-Dec-05 00:37 068 3 gusting 7 -4.4
2016-Dec-05 00:32 113 3 gusting 7 -5.0
2016-Dec-05 00:27 068 3 gusting 5 -5.0
2016-Dec-05 00:22 068 3 gusting 5 -5.0
2016-Dec-05 00:17 045 3 gusting 6 -5.0
2016-Dec-05 00:12 023 3 gusting 6 -5.0
2016-Dec-05 00:07 045 4 gusting 8 -5.0
2016-Dec-05 00:02 068 4 gusting 8 -5.0
2016-Dec-04 23:57 068 5 gusting 9 -5.0
2016-Dec-04 23:52 045 5 gusting 9 -5.0
2016-Dec-04 23:47 068 5 gusting 9 -5.0
2016-Dec-04 23:42 023 5 gusting 7 -5.0
2016-Dec-04 23:37 045 4 gusting 7 -5.6
2016-Dec-04 23:32 068 4 gusting 7 -5.6
2016-Dec-04 23:27 068 5 gusting 7 -5.6
2016-Dec-04 23:22 068 4 gusting 8 -5.6
2016-Dec-04 23:17 068 4 gusting 8 -5.6
2016-Dec-04 23:12 113 4 gusting 9 -5.6
2016-Dec-04 23:07 068 5 gusting 9 -5.6
2016-Dec-04 23:02 045 5 gusting 9 -5.6
2016-Dec-04 22:57 090 5 gusting 6 -5.6
2016-Dec-04 22:52 068 4 gusting 6 -5.6
2016-Dec-04 22:47 068 4 gusting 8 -5.6
2016-Dec-04 22:42 113 4 gusting 9 -5.6
2016-Dec-04 22:37 090 5 gusting 9 -6.1
2016-Dec-04 22:32 068 5 gusting 9 -6.1
2016-Dec-04 22:27 090 5 gusting 6 -6.1
2016-Dec-04 22:22 068 5 gusting 11 -6.1
2016-Dec-04 22:17 113 6 gusting 11 -6.1
2016-Dec-04 22:12 068 6 gusting 11 -6.1
2016-Dec-04 22:07 068 4 gusting 12 -6.1
2016-Dec-04 21:57 068 5 gusting 12 -6.7
2016-Dec-04 21:52 045 5 gusting 8 -6.7
2016-Dec-04 21:47 068 4 gusting 9 -6.7
2016-Dec-04 21:42 068 5 gusting 9 -6.7
2016-Dec-04 21:37 068 6 gusting 9 -6.7
2016-Dec-04 21:32 045 5 gusting 9 -6.7
2016-Dec-04 21:27 090 5 gusting 9 -6.7
2016-Dec-04 21:22 045 6 gusting 8 -6.7
2016-Dec-04 21:17 090 6 gusting 8 -7.2
2016-Dec-04 21:12 068 5 gusting 12 -7.2
2016-Dec-04 21:07 068 6 gusting 12 -7.2
2016-Dec-04 21:02 045 6 gusting 12 -7.2
2016-Dec-04 20:57 068 6 gusting 8 -7.2
2016-Dec-04 20:52 068 5 gusting 6 -7.2
2016-Dec-04 20:47 -7.2
2016-Dec-04 20:42 045 5 gusting 9 -7.8
2016-Dec-04 20:37 045 5 gusting 9 -7.8
2016-Dec-04 20:32 068 6 gusting 9 -7.8
2016-Dec-04 20:27 068 6 gusting 9 -7.8
2016-Dec-04 20:22 045 6 gusting 8 -7.8
2016-Dec-04 20:17 068 6 gusting 7 -7.8
2016-Dec-04 20:12 045 6 gusting 7 -7.8
2016-Dec-04 20:07 045 5 gusting 6 -8.3
2016-Dec-04 20:02 045 5 gusting 6 -8.3
2016-Dec-04 19:57 068 5 gusting 6 -8.3
2016-Dec-04 19:52 068 5 gusting 9 -8.3
2016-Dec-04 19:47 068 4 gusting 9 -8.3
2016-Dec-04 19:42 023 4 gusting 8 -8.9
2016-Dec-04 19:37 068 3 gusting 6 -8.9
2016-Dec-04 19:32 045 3 gusting 5 -9.4
2016-Dec-04 19:27 068 3 gusting 5 -9.4
2016-Dec-04 19:22 113 3 gusting 4 -10.0
2016-Dec-04 19:17 068 3 gusting 4 -10.0
2016-Dec-04 19:12 045 2 gusting 4 -10.6
2016-Dec-04 19:07 068 2 gusting 3 -10.6
2016-Dec-04 19:02 045 2 gusting 5 -10.6
2016-Dec-04 18:57 045 2 gusting 5 -10.6
2016-Dec-04 18:52 023 2 gusting 5 -11.1
2016-Dec-04 18:47 023 2 gusting 4 -11.1
2016-Dec-04 18:42 023 2 gusting 4 -11.1
2016-Dec-04 18:37 135 2 gusting 4 -11.1
2016-Dec-04 18:32 045 2 gusting 3 -11.7
2016-Dec-04 18:27 023 1 gusting 3 -11.7
2016-Dec-04 18:22 023 1 gusting 3 -11.7
2016-Dec-04 18:17 135 1 gusting 3 -12.2
2016-Dec-04 18:12 045 2 gusting 3 -12.2
2016-Dec-04 18:07 023 1 gusting 2 -12.2
2016-Dec-04 18:02 023 1 gusting 2 -12.2
2016-Dec-04 17:57 023 1 gusting 3 -12.2
2016-Dec-04 17:52 023 1 gusting 3 -12.2
2016-Dec-04 17:47 023 1 gusting 3 -12.8
2016-Dec-04 17:42 023 1 gusting 2 -12.8
2016-Dec-04 17:37 023 1 gusting 2 -12.8
2016-Dec-04 17:32 045 1 gusting 2 -12.8
2016-Dec-04 17:27 023 1 gusting 2 -12.8
2016-Dec-04 17:22 045 0 gusting 2 -13.3
2016-Dec-04 17:17 023 1 gusting 2 -13.3
2016-Dec-04 17:12 045 0 gusting 2 -13.3
2016-Dec-04 17:07 045 1 gusting 2 -13.3
2016-Dec-04 17:02 045 1 gusting 2 -13.3
2016-Dec-04 16:57 068 0 gusting 1 -13.3
2016-Dec-04 16:52 045 0 gusting 2 -13.3
2016-Dec-04 16:47 045 0 gusting 2 -13.9
2016-Dec-04 16:42 068 1 gusting 2 -13.9
2016-Dec-04 16:37 068 0 gusting 1 -13.9
2016-Dec-04 16:32 023 0 gusting 1 -13.9
2016-Dec-04 16:27 045 0 gusting 1 -13.9
2016-Dec-04 16:22 -13.9
2016-Dec-04 16:17 023 0 gusting 2 -13.9
2016-Dec-04 16:12 023 1 gusting 2 -13.9
2016-Dec-04 16:07 023 1 gusting 1 -13.9
2016-Dec-04 16:02 023 0 gusting 1 -14.4
2016-Dec-04 15:57 023 0 gusting 1 -13.9
2016-Dec-04 15:52 023 0 gusting 2 -14.4
2016-Dec-04 15:47 023 0 gusting 2 -14.4
2016-Dec-04 15:42 045 0 gusting 1 -14.4
2016-Dec-04 15:37 023 0 gusting 1 -14.4
2016-Dec-04 15:32 045 0 gusting 1 -14.4
2016-Dec-04 15:27 023 0 gusting 1 -14.4
2016-Dec-04 15:22 045 0 gusting 1 -14.4
2016-Dec-04 15:17 045 0 gusting 1 -14.4
2016-Dec-04 15:12 023 -14.4
2016-Dec-04 15:07 023 0 gusting 1 -14.4
2016-Dec-04 15:02 023 0 -14.4
2016-Dec-04 14:57 023 -14.4
2016-Dec-04 14:52 045 -15.0
2016-Dec-04 14:47 023 -15.0
2016-Dec-04 14:42 023 -15.0
2016-Dec-04 14:37 023 -15.0
2016-Dec-04 14:32 045 -15.0
2016-Dec-04 14:27 068 -15.0
2016-Dec-04 14:22 023 -15.0
2016-Dec-04 14:17 045 -15.0
2016-Dec-04 14:12 090 -15.0
2016-Dec-04 14:07 090 -15.0
2016-Dec-04 14:02 045 -15.0
2016-Dec-04 13:57 135 -15.0
2016-Dec-04 13:52 135 -15.0
2016-Dec-04 13:47 068 -15.6
2016-Dec-04 13:42 113 -15.6
2016-Dec-04 13:37 090 -15.6
2016-Dec-04 13:32 090 -15.6
2016-Dec-04 13:27 068 -15.6
2016-Dec-04 13:22 068 -15.6
2016-Dec-04 13:17 090 -15.6
2016-Dec-04 13:12 135 -15.6
2016-Dec-04 13:07 135 -15.6
2016-Dec-04 13:02 135 -15.6
2016-Dec-04 12:57 135 -15.6
2016-Dec-04 12:52 068 -15.0
2016-Dec-04 12:47 068 -15.0
2016-Dec-04 12:42 068 -15.0
2016-Dec-04 12:37 113 -15.0
2016-Dec-04 12:32 090 -15.0
2016-Dec-04 12:27 068 -15.0
2016-Dec-04 12:22 090 -15.0
2016-Dec-04 12:17 068 -15.0
2016-Dec-04 12:12 068 -15.0
2016-Dec-04 12:07 113 -15.0
2016-Dec-04 12:02 068 -15.0
2016-Dec-04 11:57 090 -15.0
2016-Dec-04 11:52 180 -15.0
2016-Dec-04 11:47 113 -14.4
2016-Dec-04 11:42 135 -14.4
2016-Dec-04 11:37 113 -14.4
2016-Dec-04 11:32 090 -14.4
2016-Dec-04 11:27 068 -14.4
2016-Dec-04 11:22 068 -14.4
2016-Dec-04 11:17 135 -14.4
2016-Dec-04 11:12 135 -14.4
2016-Dec-04 11:07 135 -14.4
2016-Dec-04 11:02 135 -13.9
2016-Dec-04 10:57 135 -13.9
2016-Dec-04 10:52 158 -13.9
2016-Dec-04 10:47 113 -13.9
2016-Dec-04 10:42 135 -13.9
2016-Dec-04 10:37 113 -13.9
2016-Dec-04 10:32 090 -13.9
2016-Dec-04 10:27 113 -13.9
2016-Dec-04 10:22 135 -13.9
2016-Dec-04 10:17 135 -13.9
2016-Dec-04 10:12 068 -13.3
2016-Dec-04 10:07 068 -13.3
2016-Dec-04 10:02 068 -13.3
2016-Dec-04 09:57 135 -13.3
2016-Dec-04 09:52 135 -13.3
2016-Dec-04 09:47 135 -13.3
2016-Dec-04 09:42 090 -13.3
2016-Dec-04 09:37 090 -12.8
2016-Dec-04 09:32 068 -12.8
2016-Dec-04 09:27 068 -12.8
2016-Dec-04 09:22 023 -12.2
2016-Dec-04 09:17 023 -12.2
2016-Dec-04 09:12 068 -12.2
2016-Dec-04 09:07 068 -12.2
2016-Dec-04 09:02 135 -12.2
2016-Dec-04 08:57 045 -12.2
2016-Dec-04 08:52 090 -12.2
2016-Dec-04 08:47 023 -12.2
2016-Dec-04 08:42 068 -12.2
2016-Dec-04 08:37 158 0 gusting 3 -11.7
2016-Dec-04 08:32 158 0 gusting 3 -11.7
2016-Dec-04 08:27 158 0 gusting 3 -12.2
2016-Dec-04 08:22 180 1 gusting 3 -12.2
2016-Dec-04 08:17 248 1 gusting 1 -12.2
2016-Dec-04 08:12 090 0 -12.2
2016-Dec-04 08:07 135 -12.2
2016-Dec-04 08:02 068 -12.2
2016-Dec-04 07:57 293 -12.2
2016-Dec-04 07:52 -12.2
2016-Dec-04 07:47 225 0 gusting 0 -11.7
2016-Dec-04 07:42 180 -12.2
2016-Dec-04 07:37 180 -12.2
2016-Dec-04 07:32 180 -12.2
2016-Dec-04 07:27 180 -11.7
2016-Dec-04 07:22 180 -11.7
2016-Dec-04 07:17 248 0 gusting 3 -11.7
2016-Dec-04 07:12 180 0 gusting 1 -11.7
2016-Dec-04 07:07 180 0 gusting 1 -11.7
2016-Dec-04 07:02 248 0 gusting 1 -11.7
2016-Dec-04 06:57 225 -11.7
2016-Dec-04 06:52 180 -11.7
2016-Dec-04 06:47 180 -11.7
2016-Dec-04 06:42 180 -11.7
2016-Dec-04 06:37 338 -11.1
2016-Dec-04 06:32 315 0 gusting 1 -11.1
2016-Dec-04 06:27 270 0 gusting 1 -11.1
2016-Dec-04 06:22 225 0 gusting 1 -11.1
2016-Dec-04 06:17 203 -11.1
2016-Dec-04 06:12 248 0 gusting 3 -11.1
2016-Dec-04 06:07 248 1 gusting 5 -10.6
2016-Dec-04 06:02 225 1 gusting 5 -10.6
2016-Dec-04 05:57 225 2 gusting 5 -10.6
2016-Dec-04 05:52 180 1 gusting 3 -10.6
2016-Dec-04 05:47 180 0 gusting 3 -10.6
2016-Dec-04 05:42 225 0 gusting 4 -10.6
2016-Dec-04 05:37 180 2 gusting 7 -10.6
2016-Dec-04 05:32 248 2 gusting 7 -10.6
2016-Dec-04 05:27 225 2 gusting 7 -10.6
2016-Dec-04 05:22 180 2 gusting 4 -10.6
2016-Dec-04 05:17 180 2 gusting 4 -10.6
2016-Dec-04 05:12 248 2 gusting 4 -10.0
2016-Dec-04 05:07 225 2 gusting 6 -10.0
2016-Dec-04 05:02 225 2 gusting 7 -10.0
2016-Dec-04 04:57 203 3 gusting 7 -10.0
2016-Dec-04 04:52 248 3 gusting 7 -10.0
2016-Dec-04 04:47 225 3 gusting 4 -10.0
2016-Dec-04 04:42 158 1 gusting 2 -10.0
2016-Dec-04 04:37 248 1 gusting 2 -10.0
2016-Dec-04 04:32 225 1 gusting 5 -10.0
2016-Dec-04 04:27 180 2 gusting 5 -10.0
2016-Dec-04 04:22 203 2 gusting 5 -10.0
2016-Dec-04 04:17 180 3 gusting 1 -10.0
2016-Dec-04 04:12 158 1 gusting 1 -9.4
2016-Dec-04 04:07 158 1 gusting 3 -9.4
2016-Dec-04 04:02 158 1 gusting 3 -9.4
2016-Dec-04 03:57 225 1 gusting 3 -9.4
2016-Dec-04 03:52 180 1 gusting 6 -9.4
2016-Dec-04 03:47 225 2 gusting 6 -9.4
2016-Dec-04 03:42 203 3 gusting 6 -9.4
2016-Dec-04 03:37 293 3 gusting 6 -9.4
2016-Dec-04 03:32 225 3 gusting 6 -9.4
2016-Dec-04 03:27 203 3 gusting 6 -9.4
2016-Dec-04 03:22 225 3 gusting 6 -9.4
2016-Dec-04 03:17 225 3 gusting 6 -8.9
2016-Dec-04 03:12 225 3 gusting 6 -8.9
2016-Dec-04 03:07 225 3 gusting 7 -8.9
2016-Dec-04 03:02 225 4 gusting 7 -8.9
2016-Dec-04 02:57 203 3 gusting 6 -8.3
2016-Dec-04 02:52 248 3 gusting 6 -8.3
2016-Dec-04 02:47 180 3 gusting 6 -8.3
2016-Dec-04 02:42 248 4 gusting 6 -8.3
2016-Dec-04 02:37 180 4 gusting 6 -8.3
2016-Dec-04 02:32 225 4 gusting 6 -8.3
2016-Dec-04 02:27 248 4 gusting 6 -8.3
2016-Dec-04 02:22 180 3 gusting 7 -7.8
2016-Dec-04 02:17 225 4 gusting 7 -7.8
2016-Dec-04 02:12 248 4 gusting 7 -7.8
2016-Dec-04 02:07 180 4 gusting 6 -7.8
2016-Dec-04 02:02 203 5 gusting 6 -7.8
2016-Dec-04 01:57 225 3 gusting 6 -7.8
2016-Dec-04 01:52 180 3 gusting 9 -7.8
2016-Dec-04 01:47 158 4 gusting 11 -7.8
2016-Dec-04 01:42 180 5 gusting 11 -7.8
2016-Dec-04 01:37 270 4 gusting 11 -7.8
2016-Dec-04 01:32 203 4 gusting 8 -7.8
2016-Dec-04 01:27 225 5 gusting 8 -7.8
2016-Dec-04 01:22 180 4 gusting 8 -7.2
2016-Dec-04 01:17 180 4 gusting 6 -7.2
2016-Dec-04 01:12 248 4 gusting 7 -7.2
2016-Dec-04 01:07 248 4 gusting 7 -7.2
2016-Dec-04 01:02 248 4 gusting 7 -7.2
2016-Dec-04 00:57 135 4 gusting 7 -7.2
2016-Dec-04 00:52 225 4 gusting 6 -7.2
2016-Dec-04 00:47 248 4 gusting 8 -7.2
2016-Dec-04 00:42 248 5 gusting 9 -7.2
2016-Dec-04 00:37 248 5 gusting 9 -7.2
2016-Dec-04 00:32 203 4 gusting 9 -7.2
2016-Dec-04 00:27 225 4 gusting 8 -7.2
2016-Dec-04 00:22 203 4 gusting 8 -7.2
2016-Dec-04 00:17 225 4 gusting 8 -7.2
2016-Dec-04 00:12 203 4 gusting 7 -7.2
2016-Dec-04 00:07 203 4 gusting 7 -7.2
2016-Dec-04 00:02 225 5 gusting 7 -7.2
2016-Dec-03 23:57 225 5 gusting 8 -7.2
2016-Dec-03 23:52 180 5 gusting 8 -7.2
2016-Dec-03 23:47 225 4 gusting 8 -7.2
2016-Dec-03 23:42 225 4 gusting 7 -7.2
2016-Dec-03 23:37 225 4 gusting 9 -7.2
2016-Dec-03 23:32 225 4 gusting 9 -7.2
2016-Dec-03 23:27 225 4 gusting 9 -7.2
2016-Dec-03 23:22 180 4 gusting 7 -7.2
2016-Dec-03 23:17 248 4 gusting 7 -7.2
2016-Dec-03 23:12 180 5 gusting 8 -7.2
2016-Dec-03 23:07 225 5 gusting 8 -7.2
2016-Dec-03 23:02 135 4 gusting 8 -7.2
2016-Dec-03 22:57 225 4 gusting 7 -7.2
2016-Dec-03 22:52 180 3 gusting 7 -7.2
2016-Dec-03 22:47 248 3 gusting 6 -7.2
2016-Dec-03 22:42 225 3 gusting 6 -7.2
2016-Dec-03 22:37 203 3 gusting 6 -7.2
2016-Dec-03 22:32 203 3 gusting 6 -7.2
2016-Dec-03 22:27 180 3 gusting 7 -7.2
2016-Dec-03 22:22 248 2 gusting 7 -7.2
2016-Dec-03 22:17 248 3 gusting 7 -7.2
2016-Dec-03 22:12 225 4 gusting 7 -7.2
2016-Dec-03 22:07 225 4 gusting 6 -7.2
2016-Dec-03 21:57 248 4 gusting 6 -7.2
2016-Dec-03 21:52 203 4 gusting 6 -7.2
2016-Dec-03 21:47 225 4 gusting 7 -7.2
2016-Dec-03 21:42 225 5 gusting 7 -7.2
2016-Dec-03 21:37 203 4 gusting 10 -7.2
2016-Dec-03 21:32 203 5 gusting 10 -7.2
2016-Dec-03 21:27 248 6 gusting 10 -7.2
2016-Dec-03 21:22 203 6 gusting 9 -7.2
2016-Dec-03 21:17 225 6 gusting 12 -7.2
2016-Dec-03 21:12 203 5 gusting 12 -7.2
2016-Dec-03 21:07 248 6 gusting 10 -7.2
2016-Dec-03 21:02 225 6 gusting 10 -7.2
2016-Dec-03 20:57 180 6 gusting 10 -7.2
2016-Dec-03 20:52 248 5 gusting 11 -7.2
2016-Dec-03 20:47 203 5 gusting 13 -7.2
2016-Dec-03 20:42 248 6 gusting 13 -7.2
2016-Dec-03 20:37 203 5 gusting 13 -7.2
2016-Dec-03 20:32 248 4 gusting 9 -7.2
2016-Dec-03 20:27 248 3 gusting 6 -7.2
2016-Dec-03 20:22 225 4 gusting 6 -7.8
2016-Dec-03 20:17 203 4 gusting 9 -7.8
2016-Dec-03 20:12 068 3 gusting 9 -7.8
2016-Dec-03 20:07 135 4 gusting 9 -7.8
2016-Dec-03 20:02 248 4 gusting 8 -7.8
2016-Dec-03 19:57 225 4 gusting 8 -7.8
2016-Dec-03 19:52 158 3 gusting 8 -7.8
2016-Dec-03 19:47 225 3 gusting 8 -7.8
2016-Dec-03 19:42 315 4 gusting 8 -7.8
2016-Dec-03 19:37 180 4 gusting 6 -7.8
2016-Dec-03 19:32 225 4 gusting 8 -7.8
2016-Dec-03 19:27 180 3 gusting 8 -7.8
2016-Dec-03 19:22 248 3 gusting 8 -7.8
2016-Dec-03 19:17 203 4 gusting 7 -7.8
2016-Dec-03 19:12 203 4 gusting 7 -7.8
2016-Dec-03 19:07 203 4 gusting 7 -8.3
2016-Dec-03 19:02 225 4 gusting 7 -8.3
2016-Dec-03 18:57 270 4 gusting 7 -8.3
2016-Dec-03 18:52 225 4 gusting 6 -8.3
2016-Dec-03 18:47 203 3 gusting 6 -8.3
2016-Dec-03 18:42 225 3 gusting 6 -8.3
2016-Dec-03 18:37 248 4 gusting 8 -8.3
2016-Dec-03 18:32 203 4 gusting 10 -8.3
2016-Dec-03 18:27 180 4 gusting 10 -8.3
2016-Dec-03 18:22 -8.3
2016-Dec-03 18:17 158 4 gusting 7 -8.3
2016-Dec-03 18:12 225 4 gusting 6 -8.3
2016-Dec-03 18:07 225 3 gusting 6 -8.3
2016-Dec-03 18:02 180 4 gusting 6 -8.3
2016-Dec-03 17:57 225 4 gusting 9 -8.3
2016-Dec-03 17:52 180 4 gusting 9 -8.3
2016-Dec-03 17:47 225 3 gusting 9 -8.3
2016-Dec-03 17:42 248 4 gusting 6 -8.3
2016-Dec-03 17:37 180 3 gusting 5 -8.3
2016-Dec-03 17:32 180 3 gusting 6 -8.9
2016-Dec-03 17:27 248 3 gusting 10 -8.9
2016-Dec-03 17:22 225 4 gusting 10 -8.9
2016-Dec-03 17:17 270 5 gusting 10 -8.9
2016-Dec-03 17:12 203 5 gusting 7 -8.9
2016-Dec-03 17:07 180 3 gusting 8 -8.9
2016-Dec-03 17:02 225 2 gusting 8 -8.9
2016-Dec-03 16:57 248 5 gusting 8 -8.9
2016-Dec-03 16:52 180 6 gusting 9 -8.9
2016-Dec-03 16:47 180 5 gusting 9 -9.4
2016-Dec-03 16:42 180 4 gusting 9 -9.4
2016-Dec-03 16:37 203 4 gusting 9 -9.4
2016-Dec-03 16:32 225 5 gusting 7 -9.4
2016-Dec-03 16:27 225 5 gusting 13 -9.4
2016-Dec-03 16:22 225 5 gusting 13 -9.4
2016-Dec-03 16:17 203 5 gusting 13 -9.4
2016-Dec-03 16:12 225 5 gusting 12 -9.4
2016-Dec-03 16:07 203 4 gusting 6 -9.4
2016-Dec-03 16:02 180 4 gusting 6 -9.4
2016-Dec-03 15:57 203 3 gusting 6 -9.4
2016-Dec-03 15:52 225 3 gusting 7 -9.4
2016-Dec-03 15:47 225 4 gusting 7 -9.4
2016-Dec-03 15:42 315 4 gusting 9 -9.4
2016-Dec-03 15:37 225 4 gusting 9 -9.4
2016-Dec-03 15:32 248 4 gusting 9 -9.4
2016-Dec-03 15:27 -9.4
2016-Dec-03 15:22 248 5 gusting 8 -9.4
2016-Dec-03 15:17 203 5 gusting 9 -9.4
2016-Dec-03 15:12 225 5 gusting 11 -9.4
2016-Dec-03 15:07 270 5 gusting 11 -9.4
2016-Dec-03 15:02 225 6 gusting 11 -9.4
2016-Dec-03 14:57 225 6 gusting 8 -9.4
2016-Dec-03 14:52 180 5 gusting 8 -9.4
2016-Dec-03 14:47 203 5 gusting 8 -9.4
2016-Dec-03 14:42 225 5 gusting 7 -9.4
2016-Dec-03 14:37 315 4 gusting 9 -9.4
2016-Dec-03 14:32 203 5 gusting 9 -9.4
2016-Dec-03 14:27 158 5 gusting 10 -9.4
2016-Dec-03 14:22 248 4 gusting 10 -9.4
2016-Dec-03 14:17 225 5 gusting 10 -9.4
2016-Dec-03 14:12 248 5 gusting 10 -8.9
2016-Dec-03 14:07 203 4 gusting 11 -9.4
2016-Dec-03 14:02 225 4 gusting 11 -9.4
2016-Dec-03 13:57 180 4 gusting 11 -9.4
2016-Dec-03 13:52 135 3 gusting 7 -8.9
2016-Dec-03 13:47 203 4 gusting 6 -8.9
2016-Dec-03 13:42 203 5 gusting 6 -8.9
2016-Dec-03 13:37 248 4 gusting 8 -8.9
2016-Dec-03 13:32 203 4 gusting 8 -8.9
2016-Dec-03 13:27 225 4 gusting 6 -8.9
2016-Dec-03 13:22 203 4 gusting 10 -8.9
2016-Dec-03 13:17 248 4 gusting 10 -8.9
2016-Dec-03 13:12 225 5 gusting 10 -8.9
2016-Dec-03 13:07 225 5 gusting 8 -8.9
2016-Dec-03 13:02 203 4 gusting 8 -8.9
2016-Dec-03 12:57 225 4 gusting 6 -8.9
2016-Dec-03 12:52 338 4 gusting 6 -8.9
2016-Dec-03 12:47 315 3 gusting 6 -8.3
2016-Dec-03 12:42 248 3 gusting 6 -8.3
2016-Dec-03 12:37 180 4 gusting 7 -8.3
2016-Dec-03 12:32 203 4 gusting 7 -8.3
2016-Dec-03 12:27 225 4 gusting 8 -8.3
2016-Dec-03 12:22 180 4 gusting 8 -8.3
2016-Dec-03 12:17 225 4 gusting 8 -8.3
2016-Dec-03 12:12 248 4 gusting 7 -8.3
2016-Dec-03 12:07 225 5 gusting 9 -8.3
2016-Dec-03 12:02 203 4 gusting 9 -8.3
2016-Dec-03 11:57 225 4 gusting 9 -8.3
2016-Dec-03 11:52 225 3 gusting 6 -8.3
2016-Dec-03 11:47 158 3 gusting 6 -7.8
2016-Dec-03 11:42 203 4 gusting 8 -7.8
2016-Dec-03 11:37 270 4 gusting 8 -7.8
2016-Dec-03 11:32 248 4 gusting 8 -7.8
2016-Dec-03 11:27 225 4 gusting 7 -7.8
2016-Dec-03 11:22 203 5 gusting 6 -7.8
2016-Dec-03 11:17 113 4 gusting 9 -7.8
2016-Dec-03 11:12 113 4 gusting 9 -7.8
2016-Dec-03 11:07 113 4 gusting 9 -7.2
2016-Dec-03 11:02 113 4 gusting 8 -7.2
2016-Dec-03 10:57 113 4 gusting 8 -7.2
2016-Dec-03 10:52 113 4 gusting 8 -7.2
2016-Dec-03 10:47 113 4 gusting 8 -7.2
2016-Dec-03 10:42 113 4 gusting 8 -7.2
2016-Dec-03 10:37 113 4 gusting 8 -7.2
2016-Dec-03 10:32 113 4 gusting 6 -7.2
2016-Dec-03 10:27 113 4 gusting 6 -7.2
2016-Dec-03 10:22 113 4 gusting 6 -6.7
2016-Dec-03 10:17 113 4 gusting 6 -6.7
2016-Dec-03 10:12 113 3 gusting 6 -6.7
2016-Dec-03 10:07 113 3 gusting 6 -6.7
2016-Dec-03 10:02 113 3 gusting 6 -6.7
2016-Dec-03 09:57 113 3 gusting 6 -6.7
2016-Dec-03 09:52 113 2 gusting 4 -6.7
2016-Dec-03 09:47 113 2 gusting 6 -6.7
2016-Dec-03 09:42 113 3 gusting 7 -6.7
2016-Dec-03 09:37 113 3 gusting 7 -6.7
2016-Dec-03 09:32 113 4 gusting 7 -6.1
2016-Dec-03 09:27 113 3 gusting 4 -6.1
2016-Dec-03 09:22 113 3 gusting 4 -6.1
2016-Dec-03 09:17 113 2 gusting 9 -6.1
2016-Dec-03 09:12 113 2 gusting 9 -6.1
2016-Dec-03 09:07 113 3 gusting 9 -6.1
2016-Dec-03 09:02 113 3 gusting 7 -6.1
2016-Dec-03 08:57 113 3 gusting 7 -6.1
2016-Dec-03 08:52 113 3 gusting 6 -6.1
2016-Dec-03 08:47 113 3 gusting 6 -6.1
2016-Dec-03 08:42 113 3 gusting 6 -6.1
2016-Dec-03 08:37 113 3 gusting 6 -6.1
2016-Dec-03 08:32 113 3 gusting 6 -6.1
2016-Dec-03 08:27 113 3 gusting 6 -6.1
2016-Dec-03 08:22 113 2 gusting 7 -6.1
2016-Dec-03 08:17 113 3 gusting 7 -6.1
2016-Dec-03 08:12 113 3 gusting 7 -6.1
2016-Dec-03 08:07 113 2 gusting 5 -6.1
2016-Dec-03 08:02 113 3 gusting 9 -6.1
2016-Dec-03 07:57 113 3 gusting 9 -6.1
2016-Dec-03 07:52 113 3 gusting 5 -6.1
2016-Dec-03 07:47 113 2 gusting 5 -5.6
2016-Dec-03 07:42 113 2 gusting 5 -5.6
2016-Dec-03 07:37 113 2 gusting 5 -5.6
2016-Dec-03 07:32 113 3 gusting 6 -5.6
2016-Dec-03 07:27 113 3 gusting 6 -5.6
2016-Dec-03 07:22 113 4 gusting 6 -5.6
2016-Dec-03 07:17 113 3 gusting 8 -5.6
2016-Dec-03 07:12 113 3 gusting 8 -5.6
2016-Dec-03 07:07 113 4 gusting 8 -5.0
2016-Dec-03 07:02 113 4 gusting 6 -5.0
2016-Dec-03 06:57 113 3 gusting 5 -5.0
2016-Dec-03 06:52 113 3 gusting 5 -5.0
2016-Dec-03 06:47 113 3 gusting 7 -5.0
2016-Dec-03 06:42 113 3 gusting 7 -5.0
2016-Dec-03 06:37 113 3 gusting 9 -4.4
2016-Dec-03 06:32 113 3 gusting 9 -4.4
2016-Dec-03 06:27 113 4 gusting 9 -4.4
2016-Dec-03 06:22 113 4 gusting 6 -4.4
2016-Dec-03 06:17 113 5 gusting 6 -4.4
2016-Dec-03 06:12 113 4 gusting 6 -4.4
2016-Dec-03 06:07 113 3 gusting 6 -4.4
2016-Dec-03 06:02 113 3 gusting 6 -3.9
2016-Dec-03 05:57 113 3 gusting 6 -3.9
2016-Dec-03 05:52 113 3 gusting 6 -3.9
2016-Dec-03 05:47 113 3 gusting 6 -3.9
2016-Dec-03 05:42 113 3 gusting 6 -4.4
2016-Dec-03 05:37 113 3 gusting 7 -3.9
2016-Dec-03 05:32 113 3 gusting 7 -3.9
2016-Dec-03 05:27 113 3 gusting 6 -3.9
2016-Dec-03 05:22 113 3 gusting 6 -3.9
2016-Dec-03 05:17 113 3 gusting 13 -3.9
2016-Dec-03 05:12 113 4 gusting 13 -3.9
2016-Dec-03 05:07 113 3 gusting 13 -3.9
2016-Dec-03 05:02 113 3 gusting 7 -3.9
2016-Dec-03 04:57 113 3 gusting 7 -3.9
2016-Dec-03 04:52 113 4 gusting 7 -3.9
2016-Dec-03 04:47 113 4 gusting 6 -3.9
2016-Dec-03 04:42 113 4 gusting 6 -3.9
2016-Dec-03 04:37 113 3 gusting 6 -3.9
2016-Dec-03 04:32 113 4 gusting 7 -3.9
2016-Dec-03 04:27 113 4 gusting 7 -3.9
2016-Dec-03 04:22 113 4 gusting 7 -3.9
2016-Dec-03 04:17 113 4 gusting 6 -3.9
2016-Dec-03 04:12 113 3 gusting 6 -3.9
2016-Dec-03 04:07 113 3 gusting 6 -3.9
2016-Dec-03 04:02 113 3 gusting 6 -3.9
2016-Dec-03 03:57 113 3 gusting 6 -3.9
2016-Dec-03 03:52 113 3 gusting 4 -4.4
2016-Dec-03 03:47 113 3 gusting 4 -4.4
2016-Dec-03 03:42 113 2 gusting 3 -4.4
2016-Dec-03 03:37 113 2 gusting 4 -4.4
2016-Dec-03 03:32 113 3 gusting 4 -4.4
2016-Dec-03 03:27 113 2 gusting 4 -4.4
2016-Dec-03 03:22 113 2 gusting 4 -4.4
2016-Dec-03 03:17 113 3 gusting 5 -4.4
2016-Dec-03 03:12 113 3 gusting 5 -4.4
2016-Dec-03 03:07 113 3 gusting 5 -4.4
2016-Dec-03 03:02 113 3 gusting 5 -4.4
2016-Dec-03 02:57 113 3 gusting 5 -4.4
2016-Dec-03 02:52 113 3 gusting 5 -4.4
2016-Dec-03 02:47 113 3 gusting 5 -4.4
2016-Dec-03 02:42 113 3 gusting 4 -4.4
2016-Dec-03 02:37 113 2 gusting 3 -4.4
2016-Dec-03 02:32 113 2 gusting 5 -4.4
2016-Dec-03 02:27 113 2 gusting 5 -5.0
2016-Dec-03 02:22 113 2 gusting 3 -5.0
2016-Dec-03 02:17 113 2 gusting 3 -5.0
2016-Dec-03 02:12 113 3 gusting 4 -5.0
2016-Dec-03 02:07 113 3 gusting 4 -5.0
2016-Dec-03 02:02 113 2 gusting 4 -5.0